Showing default

CARTOSAT 2C, 41599

Orbit data source: Space-Track

CARTOSAT 2C, 41599 is a payload satellite owned by ISRO (IN) in SSO that was launched on Wed, 22 Jun 2016 UTC via a PSLV-XL launch vehicle from the Sirharikota (SRI). Payload-class satellites include a variety of spacecraft equipped with specific instruments for various scientific and technological missions. These include communications satellites like Starlink; space stations such as the ISS; scientific satellites like the Hubble; Earth observation satellites from companies like Planet Labs, Umbra, and HawkEye 360; GPS; miniature CubeSats for education and research; and military/defense satellites.

Loading next visibility...
Identifier
41599, 2016-040A
Orbit
SSO
Last TLE update
8 hours ago
Origin
Manufacturer
ISRO
Mission
Operational Civil Imaging
Bus & Motor
IRS-2, AOCS
Mass
727 kg wet, ~600 kg dry
Launch date (UTC)
2016-06-22 (9 years ago)
Launch vehicle
PSLV-XL
Launch site
Sirharikota (SRI)
Object type
Payload
Rocket body
Debris
Shape & HBR
Hex Cyl + 2 Pan, 6 m
Radar Cross Section
6.456 m², Large (>1 m²)

Expand to show TLE details & history

TLE from 8 hours ago
0 CARTOSAT 2C
1 41599U 16040A   25129.51234994  .00006078  00000-0  29145-3 0  9990
2 41599  97.4250 190.2045 0012918 100.2655 260.0037 15.19189718492427
Epoch: 2025-05-09T12:17Z
Definitive object data (Epoch: 2025-05-09T12:17:47.034Z)
Latitude
-0.00003°
Longitude
138.1911°
Altitude
512.933 km
Speed
7.606 km/s
True Right ascension
12h 40m 49s
True Declination
0° 00' 00"
Sunlit
Object was in full shadow at TLE epoch
Visualization TLE readout
Latitude
76.08291°
Longitude
106.99276°
Altitude
512.926 km
Speed
7.619 km/s
Apparent Right ascension
15h 27m 57s
Apparent Declination
26° 53' 09"
Sunlit
Object is in daylight
Visualization observer readout
Local Sidereal Time
04:43:42
Azimuth
18.048° NNE
Elevation
-20.91°
Doppler factor
1
Orbital elements
Apogee altitude
514.148 km
Perigee altitude
496.364 km
Semi-major axis
6,883.393 km
Eccentricity
0.0012918
Inclination
97.425°
RAAN
190.2045°
Arg. of periapsis
100.2655°
True anomaly
259.85796°
Mean anomaly
260.0037°
Eccentric anomaly
259.93083°
Mean motion
3.80049 °/min
BSTAR
0.00029145
Orbital period
94.72 mins
Loading maneuver chart data...
Loading SW <> Apogee altitude chart data...
Loading historical data...
Loading historical data...
Loading historical data...
Loading historical data...
Loading historical data...
Loading historical data...
Loading historical data...

CARTOSAT 2C Visibility forecast

Observer location: undefined°, undefined°

Span
Click to sort rows by Start time (UTC) header in descending order
Start Az.
Max El. time (UTC)
Max El. Az.
Max El.
End time (UTC)
End Az.
6 mins2025-05-10 04:13:32.912Z177.998° S2025-05-10 04:16:32.912Z239.606° WSW41.609°2025-05-10 04:19:32.912Z339.115° N
5 mins2025-05-10 17:19:32.912Z342.89° N2025-05-10 17:21:32.912Z280.603° WNW32.569°2025-05-10 17:24:32.912Z218.373° SW
|